Regional Weather Roundup
Issued by NWS Portland, ME

Home | Current Version | Previous Version | Text Only | Print | Product List | Glossary On
Versions: 1 2 3 4 5 6 7 8 9 10 11 12 13 14 15 16 17 18 19 20 21 22 23 24 25 26 27 28 29 30 31 32 33 34 35 36 37 38 39 40 41 42 43 44 45 46 47 48 49 50
000
ASUS41 KGYX 210810
RWRGYX
WEATHER ROUNDUP FOR MAINE AND NEW HAMPSHIRE
NATIONAL WEATHER SERVICE GRAY ME
300 AM EST TUE NOV 21 2017

MEZ002-005-006-010-012-015-018-020-021-024-026-027-029-210900-
MAINE

CITY           SKY/WX    TMP DP  RH WIND       PRES   REMARKS
PORTLAND       CLOUDY    28  20  71 VRB3      30.07S
SANFORD          N/A     30  26  85 CALM      30.06F
WISCASSET      CLEAR     20  16  84 CALM      30.09S
ROCKLAND       CLOUDY    22  15  75 CALM      30.08S
FRYEBURG       CLOUDY    28  22  78 CALM      30.04R
LEWISTONAUBURN CLOUDY    21  16  81 CALM      30.06S
AUGUSTA        CLOUDY    22  14  71 CALM      30.06S
WATERVILLE     CLOUDY    19  15  84 CALM      30.02S
BANGOR         CLEAR     16   9  74 CALM      30.07R
GREENVILLE     NOT AVBL
MILLINOCKET    CLEAR     17   6  62 VRB6      30.02R
HOULTON        CLEAR     12   5  73 W6        29.96R
PRESQUE ISLE   CLEAR     11   5  77 VRB5      29.96R
FRENCHVILLE    CLEAR      8   2  76 W7        29.88R
CARIBOU        CLEAR     11   3  70 W7        29.92R
$$

NHZ002-005-008-009-011-012-014-210900-
NEW HAMPSHIRE

CITY           SKY/WX    TMP DP  RH WIND       PRES   REMARKS
PORTSMOUTH     PTCLDY    36  28  70 S5        30.05F
ROCHESTER      CLOUDY    32  27  81 CALM      30.05S
NASHUA         CLEAR     32  28  85 CALM      30.07S
MANCHESTER     PTCLDY    37  28  70 S9        30.04F
CONCORD        PTCLDY    34  28  79 SE5       30.04S
LACONIA        CLOUDY    31  25  78 CALM      30.03F
PLYMOUTH       CLOUDY    30  22  73 CALM      30.03F
BERLIN         CLOUDY    22  15  75 CALM      29.98S
WHITEFIELD     CLOUDY    24  18  77 CALM      29.98F
JAFFREY        CLEAR     30  28  92 S3        30.02F
LEBANON        CLEAR     26  23  88 CALM      30.01S
MT WASHINGTON  BLWGSNOW  16  16 100 W59G67      N/A  VSB 1/16WCI -10
$$

VTZ005-007-008-210900-
VERMONT

CITY           SKY/WX    TMP DP  RH WIND       PRES   REMARKS
ST JOHNSBURY     N/A     24  19  81 MISG      29.99F
MONTPELIER     MOCLDY    21  21 100 CALM      29.99F
BURLINGTON     CLOUDY    34  29  82 S10       29.95F
$$

MAZ007-012-024-CTZ003-RIZ002-NYZ038-NYZ072-210900-
SOUTHERN NEW ENGLAND AND NY

CITY           SKY/WX    TMP DP  RH WIND       PRES   REMARKS
BOSTON         CLEAR     38  26  62 SW8       30.10R
WORCESTER      CLEAR     32  22  66 S8        30.05S
NANTUCKET      CLEAR     46  34  62 W12       30.15R
PROVIDENCE     CLEAR     41  26  55 W12       30.12S
HARTFORD       PTCLDY    32  25  75 S8        30.08F
ALBANY         CLEAR     34  24  67 S10       30.03F
NEW YORK CITY  PTCLDY    45  28  51 SW13      30.12S
$$

ANZ081-ANZ082-ANZ150-NHZ014-MEZ023>029-210900-
COASTAL MARINE OBSERVATIONS

STATION/POSITION TIME  TEMP    WIND        PRES    WAVE
                       AIR SEA DIR/SP/G            HT/PER
                 (UTC) (F)     (DEG/KT/KT) (MB)    (FT/S)
MOUNT DESERT ROC 0800   27     290/ 13/ 16 1019.0R
MATINICUS ROCK   0700   29     320/  8/  9 1018.2R
ISLE OF SHOALS   0700   42     230/ 19/ 20 1017.9R
JEFFREYS LEDGE   0736      51                N/A     4/ 4
CASHES LEDGE BUO 0650   39 50              1018.0    6/ 7
GEORGES BANK BUO 0650   48 52              1018.8   14/ 9
$$

.............KEY..............
   WCI - WIND CHILL
   TC  - TEMPERATURE IN CELSIUS
   VSB - VISIBILITY IN MILES
   HX  - HEAT INDEX
   FAIR- INDICATES FEW OR NO CLOUDS BELOW 12,000 FT, WITH NO
         SIGNIFICANT WEATHER AND/OR OBSTRUCTIONS TO VISIBILITY.





USA.gov is the U.S. government's official web portal to all federal, state and local government web resources and services.